Find Kuiper-00181

NORAD ID: 67137 Int'l Des: 2025-301 Owner: KUIP Country: US Constellation: amazon-leo operational
LEOCIRCULAR

当前视图

正在加载3D地球...

About Kuiper-00181

Kuiper-00181 (NORAD 67137) is a amazon-leo constellation satellite launched Dec 16, 2025 by KUIP of US. It operates in LEO, CIRCULAR orbit with a mass of 490.00 kg.

关于 Kuiper-00181

正在加载描述...

即将过境

Passes for default location (London). Set your location on the main map for personalized predictions.

高度历史

Loading altitude history...

两行轨道根数

1 67137U 25301E 26195.50031351 .00000637 00000-0 11262-3 0 9997
2 67137 51.9022 237.3706 0000980 67.7611 292.3455 14.79923839 32491
Epoch: Jul 14, 2026 • Age: 11 hours

当前状态

高度 640.2 km
远地点 / 近地点 N/A
速度 7.54 km/s
星下点 -32.53°S, 171.39°E
发射日期 Dec 16, 2025
运行时间 0.5 years
类型 internet

技术详情

分类 Payload
质量 490.00 kg
干质量 490.00 kg
总质量 490.00 kg
长度 1.80 m
直径 0.70 m
跨度 5.00 m
形状 Box + 2 pan
制造商 KUIP
平台类型 Kuiper
阶段状态 In Orbit
所有者/国家 KUIP/US

Most Searched